Time,TemperatureF,DewpointF,PressureIn,WindDirection,WindDirectionDegrees,WindSpeedMPH,WindSpeedGustMPH,Humidity,HourlyPrecipIn,Conditions,Clouds,dailyrainin,SoftwareType,DateUTC
2013-06-18 00:02:00,58.0,49.0,30.02,ENE,64,4.0,8.0,72,0.00,,,0.00,,2013-06-18 05:02:00,
2013-06-18 00:12:00,58.0,49.0,30.02,ENE,64,4.0,8.0,72,0.00,,,0.00,,2013-06-18 05:12:00,
2013-06-18 06:22:00,47.0,43.0,30.07,NE,55,3.0,6.0,86,0.00,,,0.00,,2013-06-18 11:22:00,
2013-06-18 06:32:00,47.0,43.0,30.08,NE,56,3.0,6.0,86,0.00,,,0.00,,2013-06-18 11:32:00,
2013-06-18 06:43:00,48.0,44.0,30.08,NE,49,4.0,7.0,86,0.00,,,0.00,,2013-06-18 11:43:00,
2013-06-18 06:52:00,48.0,44.0,30.08,NE,53,4.0,6.0,86,0.00,,,0.00,,2013-06-18 11:52:00,
2013-06-18 07:01:00,48.0,44.0,30.08,East,81,2.0,6.0,87,0.00,,,0.00,,2013-06-18 12:01:00,
2013-06-18 07:11:00,48.0,44.0,30.09,ESE,121,2.0,6.0,86,0.00,,,0.00,,2013-06-18 12:11:00,
2013-06-18 07:22:00,49.0,45.0,30.09,ESE,104,3.0,5.0,85,0.00,,,0.00,,2013-06-18 12:22:00,
2013-06-18 07:33:00,50.0,46.0,30.08,ESE,104,2.0,7.0,85,0.00,,,0.00,,2013-06-18 12:33:00,
2013-06-18 07:43:00,51.0,46.0,30.09,NE,47,2.0,4.0,84,0.00,,,0.00,,2013-06-18 12:43:00,
2013-06-18 07:52:00,51.0,46.0,30.09,ENE,72,2.0,5.0,82,0.00,,,0.00,,2013-06-18 12:52:00,
2013-06-18 08:02:00,52.0,46.0,30.09,ENE,57,2.0,4.0,81,0.00,,,0.00,,2013-06-18 13:02:00,
2013-06-18 08:12:00,52.0,46.0,30.08,NE,51,4.0,7.0,81,0.00,,,0.00,,2013-06-18 13:12:00,
2013-06-18 08:22:00,53.0,47.0,30.08,ENE,59,3.0,6.0,80,0.00,,,0.00,,2013-06-18 13:22:00,
2013-06-18 08:33:00,54.0,47.0,30.08,ENE,60,3.0,5.0,78,0.00,,,0.00,,2013-06-18 13:33:00,
2013-06-18 08:43:00,54.0,47.0,30.09,ENE,60,4.0,6.0,77,0.00,,,0.00,,2013-06-18 13:43:00,
2013-06-18 08:52:00,55.0,48.0,30.09,ENE,75,2.0,5.0,77,0.00,,,0.00,,2013-06-18 13:52:00,
2013-06-18 09:02:00,55.0,48.0,30.09,NE,53,3.0,6.0,76,0.00,,,0.00,,2013-06-18 14:02:00,
2013-06-18 09:11:00,55.0,48.0,30.09,NE,43,5.0,7.0,76,0.00,,,0.00,,2013-06-18 14:11:00,
2013-06-18 09:22:00,55.0,47.0,30.09,East,89,3.0,6.0,75,0.00,,,0.00,,2013-06-18 14:22:00,
2013-06-18 09:33:00,56.0,48.0,30.09,NE,47,4.0,7.0,74,0.00,,,0.00,,2013-06-18 14:33:00,
2013-06-18 09:43:00,56.0,49.0,30.09,NE,49,3.0,5.0,76,0.00,,,0.00,,2013-06-18 14:43:00,
2013-06-18 09:53:00,57.0,50.0,30.09,East,100,1.0,6.0,76,0.00,,,0.00,,2013-06-18 14:53:00,
2013-06-18 10:02:00,57.0,50.0,30.09,NE,46,3.0,6.0,76,0.00,,,0.00,,2013-06-18 15:02:00,
2013-06-18 10:11:00,58.0,49.0,30.09,East,101,3.0,5.0,73,0.00,,,0.00,,2013-06-18 15:11:00,
2013-06-18 10:22:00,60.0,51.0,30.09,ESE,112,4.0,6.0,72,0.00,,,0.00,,2013-06-18 15:22:00,
2013-06-18 10:33:00,60.0,51.0,30.09,ESE,123,4.0,7.0,73,0.00,,,0.00,,2013-06-18 15:33:00,
2013-06-18 10:43:00,62.0,53.0,30.09,ENE,75,3.0,7.0,73,0.00,,,0.00,,2013-06-18 15:43:00,
2013-06-18 10:53:00,63.0,53.0,30.09,ESE,110,3.0,5.0,71,0.00,,,0.00,,2013-06-18 15:53:00,
2013-06-18 11:01:00,63.0,53.0,30.09,East,86,4.0,8.0,70,0.00,,,0.00,,2013-06-18 16:01:00,
2013-06-18 11:11:00,64.0,54.0,30.09,SE,128,4.0,6.0,69,0.00,,,0.00,,2013-06-18 16:11:00,
2013-06-18 11:22:00,65.0,54.0,30.09,East,81,4.0,6.0,68,0.00,,,0.00,,2013-06-18 16:22:00,
2013-06-18 11:33:00,65.0,54.0,30.09,SSE,148,2.0,7.0,67,0.00,,,0.00,,2013-06-18 16:33:00,
2013-06-18 11:43:00,65.0,54.0,30.09,SE,145,3.0,5.0,68,0.00,,,0.00,,2013-06-18 16:43:00,
2013-06-18 11:53:00,66.0,54.0,30.09,SE,146,4.0,7.0,65,0.00,,,0.00,,2013-06-18 16:53:00,
2013-06-18 12:02:00,67.0,55.0,30.09,NE,50,3.0,7.0,65,0.00,,,0.00,,2013-06-18 17:02:00,
2013-06-18 12:11:00,67.0,55.0,30.08,ESE,111,2.0,8.0,66,0.00,,,0.00,,2013-06-18 17:11:00,
2013-06-18 12:22:00,67.0,55.0,30.09,ESE,105,2.0,7.0,65,0.00,,,0.00,,2013-06-18 17:22:00,
2013-06-18 12:33:00,68.0,56.0,30.09,NE,56,4.0,6.0,65,0.00,,,0.00,,2013-06-18 17:33:00,
2013-06-18 12:43:00,68.0,56.0,30.09,SSE,162,2.0,6.0,66,0.00,,,0.00,,2013-06-18 17:43:00,
2013-06-18 12:53:00,69.0,57.0,30.09,SSE,148,3.0,8.0,65,0.00,,,0.00,,2013-06-18 17:53:00,
2013-06-18 13:02:00,69.0,57.0,30.09,SSE,148,3.0,8.0,65,0.00,,,0.00,,2013-06-18 18:02:00,
2013-06-18 13:11:00,69.0,57.0,30.09,SSE,148,3.0,8.0,65,0.00,,,0.00,,2013-06-18 18:11:00,
2013-06-18 13:22:00,69.0,57.0,30.09,SSE,148,3.0,8.0,65,0.00,,,0.00,,2013-06-18 18:22:00,
2013-06-18 13:33:00,69.0,57.0,30.09,SSE,148,3.0,8.0,65,0.00,,,0.00,,2013-06-18 18:33:00,
2013-06-18 15:43:00,73.0,56.0,30.05,East,96,4.0,8.0,56,0.00,,,0.00,,2013-06-18 20:43:00,
2013-06-18 15:52:00,72.0,55.0,30.04,SE,145,2.0,6.0,55,0.00,,,0.00,,2013-06-18 20:52:00,
2013-06-18 16:02:00,74.0,57.0,30.04,ESE,117,3.0,6.0,55,0.00,,,0.00,,2013-06-18 21:02:00,
2013-06-18 16:11:00,74.0,56.0,30.04,SE,146,3.0,7.0,53,0.00,,,0.00,,2013-06-18 21:11:00,
2013-06-18 16:23:00,73.0,55.0,30.03,East,86,2.0,5.0,54,0.00,,,0.00,,2013-06-18 21:23:00,
2013-06-18 16:33:00,73.0,56.0,30.03,South,188,3.0,7.0,55,0.00,,,0.00,,2013-06-18 21:33:00,
2013-06-18 16:43:00,74.0,55.0,30.03,NNE,33,4.0,6.0,52,0.00,,,0.00,,2013-06-18 21:43:00,
2013-06-18 16:52:00,73.0,55.0,30.02,SSE,152,2.0,6.0,53,0.00,,,0.00,,2013-06-18 21:52:00,
2013-06-18 17:01:00,74.0,56.0,30.02,SE,143,3.0,7.0,53,0.00,,,0.00,,2013-06-18 22:01:00,
2013-06-18 17:11:00,74.0,54.0,30.02,East,79,2.0,6.0,49,0.00,,,0.00,,2013-06-18 22:11:00,
2013-06-18 17:22:00,75.0,55.0,30.02,East,90,5.0,8.0,50,0.00,,,0.00,,2013-06-18 22:22:00,
2013-06-18 17:34:00,73.0,54.0,30.02,SSE,149,1.0,6.0,52,0.00,,,0.00,,2013-06-18 22:34:00,
2013-06-18 17:43:00,74.0,56.0,30.02,ESE,106,3.0,7.0,53,0.00,,,0.00,,2013-06-18 22:43:00,
2013-06-18 17:53:00,74.0,56.0,30.02,ESE,106,3.0,7.0,53,0.00,,,0.00,,2013-06-18 22:53:00,
2013-06-18 18:02:00,74.0,56.0,30.02,ESE,106,3.0,7.0,53,0.00,,,0.00,,2013-06-18 23:02:00,
2013-06-18 18:11:00,74.0,56.0,30.02,ESE,106,3.0,7.0,53,0.00,,,0.00,,2013-06-18 23:11:00,
2013-06-18 18:23:00,74.0,56.0,30.02,ESE,106,3.0,7.0,53,0.00,,,0.00,,2013-06-18 23:23:00,
2013-06-18 22:01:00,66.0,57.0,30.01,SE,139,0.0,1.0,72,0.00,,,0.00,,2013-06-19 03:01:00,
2013-06-18 22:11:00,65.0,56.0,30.01,SE,124,0.0,1.0,74,0.00,,,0.00,,2013-06-19 03:11:00,
2013-06-18 22:22:00,64.0,56.0,30.02,SE,124,0.0,0.0,75,0.00,,,0.00,,2013-06-19 03:22:00,
2013-06-18 22:33:00,63.0,56.0,30.02,SE,124,0.0,0.0,77,0.00,,,0.00,,2013-06-19 03:33:00,
2013-06-18 22:42:00,62.0,55.0,30.02,SE,124,0.0,0.0,79,0.00,,,0.00,,2013-06-19 03:42:00,
2013-06-18 22:52:00,61.0,55.0,30.02,SE,124,0.0,0.0,81,0.00,,,0.00,,2013-06-19 03:52:00,
2013-06-18 23:01:00,61.0,55.0,30.03,SE,124,0.0,0.0,82,0.00,,,0.00,,2013-06-19 04:01:00,
2013-06-18 23:11:00,60.0,55.0,30.03,SE,124,0.0,0.0,83,0.00,,,0.00,,2013-06-19 04:11:00,
2013-06-18 23:22:00,60.0,55.0,30.03,SE,124,0.0,0.0,83,0.00,,,0.00,,2013-06-19 04:22:00,
2013-06-18 23:30:00,60.0,55.0,30.03,SE,136,0.0,0.0,83,0.00,,,0.00,,2013-06-19 04:30:00,
2013-06-18 23:32:00,60.0,55.0,30.03,SE,124,0.0,0.0,83,0.00,,,0.00,,2013-06-19 04:32:00,
2013-06-18 23:42:00,60.0,55.0,30.03,SE,136,0.0,0.0,83,0.00,,,0.00,,2013-06-19 04:42:00,
2013-06-18 23:53:00,60.0,55.0,30.03,SE,136,0.0,0.0,83,0.00,,,0.00,,2013-06-19 04:53:00,